Probability
1 1 0 0 1 2 3 3 3 1 0 0 0 0 0 0 0 0 0 0 0 0 0 0 0 0 0 0 0 2 4 3 2 3 3 1 0 0 0 0 0 0 0
2 2 1 0 1 2 3 3 3 2 0 0 0 0 0 0 0 0 0 0 0 0 0 0 0 0 0 0 1 2 3 3 3 3 3 2 1 0 0 0 0 0 0
1 2 2 1 0 1 3 3 3 1 0 0 0 0 0 0 0 0 0 0 0 0 0 0 0 0 0 0 1 2 3 3 3 3 3 2 1 0 0 0 0 0 0
0 1 1 1 0 1 2 3 3 1 0 0 0 0 0 0 0 0 0 0 0 0 0 0 0 0 0 0 1 2 3 3 3 3 3 3 1 0 0 0 0 0 0
0 0 0 0 0 0 1 3 3 2 1 0 0 0 0 0 0 0 0 0 0 0 0 0 0 0 0 0 1 2 3 3 3 3 3 3 2 1 0 0 0 0 0
0 0 0 0 0 0 1 2 2 2 1 0 0 0 0 0 0 0 0 0 0 0 0 0 0 0 0 0 0 1 2 2 2 3 3 3 2 1 0 0 0 0 0
0 0 0 0 0 0 0 1 1 1 0 0 0 0 0 0 0 0 0 0 0 0 0 0 0 0 0 0 0 0 0 0 1 3 3 3 3 1 0 0 0 0 0
0 0 0 0 0 0 0 0 0 0 0 0 0 0 0 0 0 0 0 0 0 0 0 0 0 0 0 0 0 0 0 0 1 2 3 2 2 1 0 0 0 0 0
0 0 0 0 0 0 0 0 0 0 0 0 0 0 0 0 0 0 0 0 0 0 0 0 0 0 0 0 0 0 0 0 1 1 1 1 1 1 0 0 0 0 0
0 0 0 0 0 0 0 0 0 0 0 0 0 0 0 0 0 0 0 0 0 0 0 0 0 0 0 0 0 0 0 0 0 0 0 0 0 0 0 0 0 0 0
0 0 0 0 0 0 0 0 0 0 0 0 0 0 0 0 0 0 0 0 0 0 0 0 0 0 0 0 0 0 0 0 0 0 0 0 0 0 0 0 0 0 0
0 0 0 0 0 0 0 0 0 0 0 0 0 0 0 0 0 0 0 0 0 0 0 0 0 0 0 0 0 0 0 0 0 0 0 0 0 0 0 0 0 0 0
0 0 0 0 0 0 0 0 0 0 0 0 0 0 0 0 0 0 0 0 0 0 0 0 0 0 0 0 0 0 0 0 0 0 0 0 0 0 0 0 0 0 0
0 0 0 0 0 0 0 0 0 0 0 0 0 0 0 0 0 0 0 0 0 0 0 0 0 0 0 0 0 0 0 0 0 0 0 0 0 0 0 0 0 0 0
0 0 0 0 0 0 0 0 0 0 0 0 0 0 0 0 0 0 0 0 0 0 0 0 0 0 0 0 0 0 0 0 0 0 0 0 0 0 0 0 0 0 0
0 0 0 0 0 0 0 0 0 0 0 0 0 0 0 0 0 0 0 0 0 0 0 0 0 0 0 0 0 0 0 0 0 0 0 0 0 0 0 0 0 0 0
0 0 0 0 0 0 0 0 0 0 0 0 0 0 0 0 0 0 0 0 0 0 0 0 0 0 0 0 0 0 0 0 0 0 0 0 0 0 0 0 0 0 0
0 0 0 0 0 0 0 0 0 0 0 0 0 0 0 0 0 0 0 0 0 0 0 0 0 0 0 0 0 0 0 0 0 0 0 0 0 0 0 0 0 0 0
0 0 0 0 0 0 0 0 0 0 0 0 0 0 0 0 0 0 0 0 0 0 0 0 0 0 0 0 0 0 0 0 0 0 0 0 0 0 0 0 0 0 0
0 0 0 0 0 0 0 0 0 0 0 0 0 0 0 0 0 0 0 0 0 0 0 0 0 0 0 0 0 0 0 0 0 0 0 0 0 0 0 0 0 0 0
0 0 0 0 0 0 0 0 0 0 0 0 0 0 0 0 0 0 0 0 0 0 0 0 0 0 0 0 0 0 0 0 0 0 0 0 0 0 0 0 0 0 0
0 0 0 0 0 0 0 0 0 0 0 0 0 0 0 0 0 0 0 0 0 0 0 0 0 0 0 0 0 0 0 0 0 0 0 0 0 0 0 0 0 0 0
0 0 0 0 0 0 0 0 0 0 0 0 0 0 0 0 0 0 0 0 0 0 0 0 0 0 0 0 0 0 0 0 0 0 0 0 0 0 0 0 0 0 0
0 0 0 0 0 0 0 0 0 0 0 0 0 0 0 0 0 0 0 0 0 0 0 0 0 0 0 0 0 0 0 0 0 0 0 0 0 0 0 0 0 0 0
0 0 0 0 0 0 0 0 0 0 0 0 0 0 0 0 0 0 0 0 0 0 0 0 0 0 0 0 0 0 0 0 0 0 0 0 0 0 0 0 0 0 0
0 0 0 0 0 0 0 0 0 0 0 0 0 0 0 0 0 0 0 0 0 0 0 0 0 0 0 0 0 0 0 0 0 0 0 0 0 0 0 0 0 0 0
Wind_Speed
2 2 2 2 3 2 2 2 2 2 2 2 2 2 2 2 2 2 2 5 6 5 3 2 3 3 3 3 4 4 3 3 3 3 3 3 3 2 3 3 3 3 3
2 2 2 3 3 3 3 2 2 2 1 1 2 2 2 2 2 2 2 3 6 6 5 3 3 2 2 2 2 3 3 3 2 2 2 2 2 2 2 2 2 2 2
3 2 2 2 3 3 3 2 2 1 1 1 1 2 1 2 2 2 2 2 2 5 6 5 3 3 2 2 2 2 2 2 2 2 2 1 1 1 2 2 2 2 2
3 2 2 2 3 2 2 2 2 2 2 1 1 1 1 1 1 2 2 2 2 2 4 7 5 5 4 3 3 2 2 1 2 2 1 1 1 0 1 2 2 3 3
3 2 2 2 2 2 2 2 2 2 2 2 2 1 1 1 1 1 1 2 2 2 2 4 6 7 7 7 5 3 2 1 1 1 1 0 1 0 1 1 2 2 3
2 2 2 2 2 2 2 2 2 2 2 2 2 1 1 0 0 1 1 1 2 2 2 3 2 3 6 7 7 6 3 2 1 1 1 1 1 1 1 2 2 3 4
2 2 2 2 2 2 2 2 2 2 2 2 1 1 0 1 1 1 1 1 2 2 2 3 2 2 2 4 6 7 7 4 3 2 2 2 2 2 3 3 3 3 3
1 1 2 2 2 1 2 2 2 1 2 2 2 1 1 2 1 0 1 1 1 2 2 3 3 3 3 2 4 7 8 7 5 4 4 3 4 4 4 4 4 3 3
1 1 1 1 1 1 1 1 1 1 1 2 2 2 2 1 1 1 1 1 1 1 2 2 3 3 3 2 3 5 7 7 7 6 5 5 5 5 5 5 5 5 4
1 1 1 1 1 1 1 1 1 1 1 1 1 2 2 2 2 2 1 1 1 2 2 2 2 2 2 2 3 7 7 7 7 7 6 6 6 6 6 7 7 6 5
1 1 1 1 1 1 1 1 1 1 1 1 1 1 1 2 2 3 3 2 2 2 2 2 2 2 2 2 2 5 7 7 7 8 8 7 7 7 7 7 7 6 6
1 1 1 2 1 2 2 2 1 2 2 2 1 1 2 2 2 2 3 3 3 2 3 2 2 2 2 2 3 6 7 7 7 8 8 8 8 8 7 6 6 5 5
2 2 2 2 2 2 2 2 2 2 2 3 2 2 2 2 2 3 3 3 4 3 3 2 2 2 2 3 3 6 6 7 7 8 9 8 8 8 8 7 7 6 6
2 3 3 3 3 3 3 3 3 3 3 3 3 3 3 3 2 3 3 3 4 4 4 4 2 2 2 3 4 6 5 6 7 8 9 9 8 8 7 8 8 6 6
2 3 3 3 3 3 3 3 3 3 3 3 3 4 4 3 3 3 3 3 4 4 4 3 2 2 3 3 5 5 5 6 8 9 9 8 8 8 8 8 8 7 7
3 3 4 4 4 4 4 3 3 3 4 4 3 4 4 3 4 3 3 4 4 5 5 3 4 4 5 4 6 6 6 8 8 8 9 8 8 8 8 8 8 8 7
4 4 4 4 4 4 4 4 4 4 4 4 4 5 5 5 4 4 4 4 4 5 6 5 5 5 6 6 5 6 6 6 5 7 8 9 9 8 8 8 8 8 8
4 4 4 4 5 5 5 5 5 5 5 5 5 6 6 5 6 5 5 5 5 6 6 7 6 5 7 7 7 7 6 5 6 7 9 9 9 8 9 9 9 9 8
4 4 5 5 5 5 5 5 5 6 6 6 6 6 6 6 7 6 6 6 5 5 6 6 6 5 5 5 6 6 7 6 6 6 8 8 9 9 9 10 10 9 9
5 5 5 5 5 6 6 6 6 6 6 7 7 7 7 7 8 8 6 7 6 6 6 6 6 6 5 6 6 5 5 5 5 5 6 7 8 9 10 10 10 10 9
5 5 5 5 5 5 5 6 6 7 7 7 7 8 8 9 11 9 7 7 7 7 6 6 6 6 5 5 5 5 6 5 6 4 5 5 5 5 6 8 9 10 10
5 5 5 5 6 5 8 10 8 7 7 8 8 8 8 9 10 12 13 13 11 9 8 7 7 7 7 7 6 5 6 6 6 3 5 6 5 6 6 5 8 10 11
5 5 6 6 7 8 10 11 11 8 7 7 8 8 7 7 9 8 10 12 12 14 14 11 9 9 8 8 7 8 8 8 7 5 6 7 6 7 6 6 11 11 12
5 5 6 6 7 8 11 11 11 8 7 8 8 9 9 9 8 9 9 9 9 9 11 9 9 9 9 8 9 9 9 8 8 7 7 7 6 7 7 6 9 11 12
5 6 6 6 7 8 10 11 11 7 7 8 8 9 9 9 11 13 10 9 10 9 10 12 13 12 13 13 10 7 7 7 7 6 5 6 6 7 7 7 7 10 11
6 6 6 6 7 8 10 12 12 6 7 7 7 8 11 12 13 13 10 9 10 8 7 7 8 10 9 9 11 9 7 7 7 6 4 5 5 5 6 5 4 5 6
Wind_Direction
33 32 31 28 21 11 9 4 1 7 18 23 18 20 31 31 26 22 37 32 22 24 31 46 57 52 57 60 57 55 61 71 91 97 108 126 132 133 132 135 127 118 104
30 30 31 24 17 6 1 353 353 347 360 8 11 6 17 24 20 21 21 44 34 26 29 38 39 30 40 45 41 41 53 63 79 88 98 112 143 164 164 157 154 152 143
31 31 31 25 13 3 359 356 354 344 4 6 358 347 3 18 21 22 22 23 37 35 28 32 33 27 16 21 26 22 32 66 61 80 87 97 123 181 193 178 189 190 194
31 30 32 25 11 6 3 5 358 350 0 349 340 338 347 13 21 23 30 30 29 25 38 34 29 31 21 12 16 19 22 49 52 59 63 60 55 102 183 188 205 213 215
31 31 28 26 13 13 13 9 1 359 351 346 331 326 333 344 28 29 34 33 26 19 22 39 34 31 26 19 10 3 5 13 30 37 27 51 37 336 262 233 219 226 224
30 31 26 26 21 19 20 15 11 6 -0 344 320 321 320 351 35 33 22 27 16 12 12 13 17 27 24 18 12 1 341 338 332 294 319 274 251 285 283 268 256 247 234
35 36 27 22 20 20 17 17 17 17 18 1 320 299 233 141 75 51 26 16 18 9 4 7 1 356 7 20 17 10 356 328 316 296 281 278 264 265 276 273 266 271 257
35 33 33 13 13 11 28 25 19 10 4 352 322 286 263 205 169 324 349 357 355 5 4 4 2 2 352 354 16 13 360 345 320 308 287 280 267 255 266 271 275 277 279
4 18 20 11 359 7 9 6 4 1 334 340 347 326 286 271 299 219 247 303 337 341 344 344 344 349 349 348 349 10 4 351 334 311 304 292 280 268 263 264 268 274 285
302 346 352 352 336 326 328 330 346 329 301 304 337 345 324 327 280 272 227 250 312 315 322 329 326 331 338 338 359 3 1 353 341 328 313 303 294 284 273 269 272 275 276
301 330 306 294 292 281 284 298 323 318 291 272 293 310 297 287 273 265 266 276 292 290 307 307 310 317 320 324 335 351 351 346 337 329 322 319 312 304 291 280 273 274 278
269 289 263 251 265 271 263 269 282 280 279 272 270 271 276 273 274 268 268 277 283 293 297 285 289 303 319 322 333 345 339 335 331 324 318 317 314 311 305 297 283 278 282
268 276 267 261 266 271 265 263 260 261 260 260 261 267 273 279 281 283 275 276 279 286 275 259 268 286 311 316 323 338 329 330 327 323 316 316 318 317 313 308 293 286 279
262 271 268 263 261 262 257 249 250 254 256 256 259 262 262 267 264 268 276 279 276 268 255 257 260 272 299 309 328 321 312 322 318 316 313 312 313 313 311 306 295 289 289
266 263 266 263 262 259 253 246 245 250 255 255 254 256 260 266 267 265 264 266 269 271 267 265 267 283 319 313 315 303 298 308 309 306 305 305 304 306 304 299 293 284 284
263 256 257 259 262 257 249 245 249 249 253 257 256 254 257 262 267 264 258 261 264 266 267 274 281 292 300 301 303 296 295 299 290 295 295 295 297 297 295 293 292 281 278
257 253 252 255 260 255 247 244 245 248 250 255 257 255 259 262 262 261 257 254 257 260 264 273 278 285 288 291 294 291 290 287 282 284 289 287 287 288 289 287 286 283 276
255 254 251 252 258 254 246 242 244 245 246 252 257 259 260 261 259 259 255 254 255 258 264 272 277 280 283 288 290 293 291 287 283 284 283 283 280 281 284 284 281 279 275
257 257 252 248 255 255 247 243 244 246 247 250 253 256 258 258 258 258 257 257 258 259 262 266 272 276 278 279 284 285 285 283 284 281 279 277 275 273 277 281 279 277 275
254 255 254 251 253 254 246 244 244 245 248 251 252 254 255 255 256 258 259 258 257 258 259 261 264 268 269 272 272 278 282 284 284 284 281 281 281 277 273 275 275 273 271
256 257 257 255 255 253 242 240 245 248 250 253 254 254 255 258 259 258 257 258 257 255 257 258 260 265 266 268 269 278 279 287 284 277 280 277 279 275 273 268 268 266 265
259 258 256 256 258 256 251 251 251 250 252 253 256 257 258 260 261 263 262 261 259 255 253 256 260 259 265 269 273 270 275 278 280 280 285 283 279 274 273 272 274 269 264
258 257 258 257 261 260 257 257 256 256 251 252 255 257 259 258 262 262 265 268 267 263 258 258 258 259 264 263 265 265 263 268 274 283 287 281 278 274 273 269 277 273 265
258 259 260 260 263 261 261 262 264 261 256 254 254 255 257 259 257 260 261 263 263 263 262 260 257 260 262 263 259 261 266 273 276 267 266 273 278 277 280 272 268 269 267
261 261 261 260 261 264 263 264 266 261 255 256 256 256 256 257 258 261 261 261 262 263 264 263 264 263 262 263 262 259 256 259 269 267 260 265 276 286 282 273 264 263 265
263 264 263 261 262 265 265 265 265 259 257 258 258 256 255 257 259 260 259 257 258 261 264 266 265 263 261 258 258 254 253 255 267 270 257 259 272 286 285 270 272 275 269